Location: Bluff Heights
(33.7692°N, 118.1592°W)
Time: 12:38:30
(UTC+00:00)

S-56A Canister/Altair - Pass Details

Date: 01 August 2021
Orbit: 632 x 2500 km, 38.9° (Epoch: 25 September)

Event Time Altitude Azimuth Distance (km) Brightness Sun altitude
Rises 03:37:14 0° 291° (WNW) 6,171 14.3 -9.0°
Reaches altitude 10° 03:41:18 10° 291° (WNW) 5,164 13.3 -9.8°
Maximum altitude 03:56:26 84° 206° (SSW) 2,228 9.8 -12.5°
Enters shadow 04:06:10 17° 120° (ESE) 3,588 10.2 -14.2°
